TimeAKDT,TemperatureF,Dew PointF,Humidity,Sea Level PressureIn,VisibilityMPH,Wind Direction,Wind SpeedMPH,Gust SpeedMPH,PrecipitationIn,Events,Conditions,WindDirDegrees,DateUTC
12:53 AM,32.0,23.0,69,30.11,10.0,NNE,3.5,-,N/A,,Clear,30,2013-04-30 08:53:00
1:53 AM,32.0,23.0,69,30.10,10.0,NNE,3.5,-,N/A,,Clear,30,2013-04-30 09:53:00
2:53 AM,30.9,21.9,69,30.08,10.0,Calm,Calm,-,N/A,,Scattered Clouds,0,2013-04-30 10:53:00
3:53 AM,33.1,21.9,64,30.06,10.0,Calm,Calm,-,N/A,,Overcast,0,2013-04-30 11:53:00
4:53 AM,32.0,23.0,69,30.05,10.0,Calm,Calm,-,N/A,,Overcast,0,2013-04-30 12:53:00
5:53 AM,33.1,21.9,64,30.03,10.0,Calm,Calm,-,N/A,,Partly Cloudy,0,2013-04-30 13:53:00
6:53 AM,33.1,23.0,66,30.01,10.0,Calm,Calm,-,N/A,,Mostly Cloudy,0,2013-04-30 14:53:00
7:53 AM,34.0,26.1,73,30.00,10.0,Calm,Calm,-,N/A,,Mostly Cloudy,0,2013-04-30 15:53:00
8:53 AM,39.9,28.9,65,29.98,10.0,SW,6.9,-,N/A,,Overcast,230,2013-04-30 16:53:00
9:53 AM,42.1,27.0,55,29.96,10.0,SW,10.4,-,N/A,,Mostly Cloudy,220,2013-04-30 17:53:00
10:53 AM,43.0,25.0,49,29.96,10.0,SW,9.2,-,N/A,,Overcast,220,2013-04-30 18:53:00
11:53 AM,44.1,26.1,49,29.94,10.0,SW,6.9,-,N/A,,Overcast,220,2013-04-30 19:53:00
12:53 PM,45.0,27.0,49,29.93,10.0,WSW,6.9,-,N/A,,Overcast,250,2013-04-30 20:53:00
1:53 PM,45.0,26.1,48,29.92,10.0,South,4.6,-,N/A,,Mostly Cloudy,190,2013-04-30 21:53:00
2:53 PM,46.0,25.0,44,29.91,10.0,West,4.6,-,N/A,,Mostly Cloudy,260,2013-04-30 22:53:00
3:53 PM,45.0,27.0,49,29.90,10.0,Variable,4.6,-,N/A,,Mostly Cloudy,0,2013-04-30 23:53:00
4:53 PM,44.1,28.9,55,29.88,10.0,SW,3.5,-,N/A,,Mostly Cloudy,230,2013-05-01 00:53:00
5:53 PM,44.1,28.9,55,29.86,10.0,South,6.9,-,N/A,,Mostly Cloudy,170,2013-05-01 01:53:00
6:53 PM,42.1,32.0,67,29.84,10.0,SW,6.9,-,N/A,,Mostly Cloudy,220,2013-05-01 02:53:00
7:53 PM,41.0,30.9,67,29.83,10.0,SW,4.6,-,N/A,,Overcast,230,2013-05-01 03:53:00
8:53 PM,37.9,30.9,76,29.81,10.0,SW,5.8,-,N/A,,Scattered Clouds,220,2013-05-01 04:53:00
9:53 PM,37.9,30.9,76,29.80,10.0,West,3.5,-,N/A,,Overcast,260,2013-05-01 05:53:00
10:53 PM,39.0,30.0,70,29.79,10.0,Calm,Calm,-,N/A,,Overcast,0,2013-05-01 06:53:00
11:53 PM,37.0,28.9,73,29.78,10.0,Calm,Calm,-,N/A,,Overcast,0,2013-05-01 07:53:00